Location: Brno
(49.2000°N, 16.6330°E)
Time: 01:00:20
(UTC+02:00)

Vanguard 3 - Pass Details

Date: 03 August 2021
Orbit: 510 x 3260 km, 33.3° (Epoch: 19 September)

Event Time Altitude Azimuth Distance (km) Brightness Sun altitude
Rises 15:28:59 0° 178° (S) 4,836 11.4 46.2°
Reaches altitude 10° 15:34:25 10° 154° (SSE) 4,442 11.1 45.4°
Maximum altitude 15:39:42 14° 129° (SE) 4,650 11.0 44.7°
Drops below altitude 10° 15:45:58 10° 105° (ESE) 5,454 11.1 43.8°
Sets 15:54:24 0° 85° (E) 6,957 11.5 42.6°
